Regional Weather Roundup
Issued by NWS

Home | Current Version | Previous Version | Text Only | Print | Product List | Glossary On
Versions: 1 2 3 4 5 6 7 8 9 10 11 12 13 14 15 16 17 18 19 20 21 22 23 24 25 26 27 28 29 30 31 32 33 34 35 36 37 38 39 40 41 42 43 44 45 46 47 48 49 50
000
ASPQ40 PGUM 110012
RWRPQ
WEATHER ROUNDUP FOR THE MARIANAS AND MICRONESIA
NATIONAL WEATHER SERVICE TIYAN GU
1000 AM CHST SUN DEC 11 2016

GUZ001>004-110100-
MARIANA ISLANDS-

CITY           SKY/WX    TMP DP  RH WIND       PRES   REMARKS
GUAM AIRPORT   MOSUNNY   86  73  66 E14       29.86F HX  93
ANDERSEN AFB   PTSUNNY   82  73  74 NE16      29.88F
ROTA AIRPORT   MOSUNNY   82  72  69 E14       29.87F
TINIAN AP      MOSUNNY   82  73  74 E14       29.86F
SAIPAN AP      PTSUNNY   84  73  70 E14       29.87F HX  91

$$

PMZ161-110100-
REPUBLIC OF PALAU-

CITY           SKY/WX    TMP DP  RH WIND       PRES   REMARKS
KOROR AP       PTSUNNY   82  79  89 CALM      29.79S HX  93
KOROR WSO      NOT AVBL

$$

PMZ171>174-110100-
FEDERATED STATES OF MICRONESIA-

CITY           SKY/WX    TMP DP  RH WIND       PRES   REMARKS
YAP AIRPORT    CLOUDY    84  75  74 E12       29.77S HX  92
CHUUK AP       MOSUNNY   88  79  74 NE7       29.81F HX 102
POHNPEI AP     NOT AVBL
POHNPEI WSO    NOT AVBL
KOSRAE AP      NOT AVBL

$$

PMZ181-110100-
REPUBLIC OF THE MARSHALL ISLANDS-

CITY           SKY/WX    TMP DP  RH WIND       PRES   REMARKS
KWAJALEIN AP   HVY RAIN  79  77  94 E12       29.82F
MAJURO AP      NOT AVBL
MAJURO WSO     PTSUNNY   86  77  74 NE17      29.77F HX  97

$$




USA.gov is the U.S. government's official web portal to all federal, state and local government web resources and services.